Tracking 29019 objects as of 13-Jun-2024
HD Live streaming from Space Station
objects crossing your sky now

STARLINK-4739

Track STARLINK-4739 now!
10-day predictions
STARLINK-4739 is classified as:


NORAD ID: 53792
Int'l Code: 2022-111V
Perigee: 546.0 km
Apogee: 547.8 km
Inclination: 53.2 °
Period: 95.4 minutes
Semi major axis: 6917 km
RCS: Unknown
Launch date: September 11, 2022
Source: United States (US)
Launch site: AIR FORCE EASTERN TEST RANGE (AFETR)
Your satellite tracking list
Your tracking list is empty




NASA's NSSDC Master Catalog

Two Line Element Set (TLE):
1 53792U 22111V   24164.53091375  .00000156  00000-0  27896-4 0  9991
2 53792  53.2165 245.8136 0001317  89.1059 271.0084 15.08833802 97795
Source of the keplerian elements: AFSPC